Home   Weather   Unalaska   Past weeks

Flag for USA Past Weather in Unalaska, Alaska, USA — Yesterday and Last 2 Weeks

46 °F

Scattered clouds.

Feels Like: 42 °F
Forecast: 40 / 48 °F
Wind: 8 mph from North

Location: Dutch Harbor

Current Time: Oct 21, 2016 at 5:51:37 PM

Latest Report: Oct 21, 2016 at 4:56 PM

Visibility: 10 mi

Pressure: 30.12 "Hg

Humidity: 54%

Dew Point: 30 °F

Location of UnalaskaLocation

Past Weather in Unalaska — Graph


Unalaska Temperature Yesterday

Maximum temperature yesterday: 45 °F (at 4:56 PM)
Minimum temperature yesterday: 41 °F (at 7:56 AM)
Average temperature yesterday: 43 °F

High & Low Weather Summary for the Past Weeks

High55 °F (Oct 6, 9:02 PM)97% (Oct 12, 5:56 AM)30.11 "Hg (Oct 12, 5:56 AM)
Low36 °F (Oct 18, 12:56 AM)49% (Oct 17, 11:56 AM)28.65 "Hg (Oct 11, 7:56 AM)
Average47 °F77%29.40 "Hg
* Reported Oct 6 3:56 PM — Oct 21 3:56 PM, Unalaska, Weather by CustomWeather, © 2016

Note: Actual official high and low records may vary slightly from our data, if they occured in-between our weather recording intervals... More about our weather records


Unalaska Weather History for the Previous 24 Hours

Scroll right to see more
Time TempWeatherWind HumidityBarometerVisibility
3:56 PM
Fri, Oct 21
46 °FScattered clouds.7 mph58%30.11 "Hg10 mi
2:56 PM44 °FScattered clouds.5 mph71%30.11 "Hg10 mi
1:56 PM42 °FBroken clouds.No wind79%30.10 "Hg10 mi
12:56 PM42 °FCloudy.5 mph79%30.09 "Hg10 mi
11:56 AM41 °FMostly cloudy.6 mph82%30.09 "Hg10 mi
10:56 AM41 °FLight rain. Cloudy.No wind82%30.07 "Hg10 mi
9:56 AM40 °FLight rain. More clouds than sun.5 mph80%30.05 "Hg9 mi
8:56 AM40 °FMostly cloudy.No wind80%30.04 "Hg10 mi
7:56 AM42 °FLight rain. Overcast.3 mph73%30.03 "Hg10 mi
6:56 AM41 °FLight rain. Mostly cloudy.No wind76%30.02 "Hg10 mi
5:56 AM42 °FOvercast.5 mph73%30.03 "Hg10 mi
4:56 AM41 °FOvercast.No wind74%30.03 "Hg10 mi
3:56 AM40 °FOvercast.No wind80%30.02 "Hg10 mi
2:56 AM40 °FMostly cloudy.3 mph80%30.02 "Hg10 mi
1:56 AM42 °FPassing clouds.No wind76%30.01 "Hg10 mi
12:56 AM42 °FLight rain. Mostly cloudy.7 mph71%30.01 "Hg10 mi
11:56 PM
Thu, Oct 20
43 °FOvercast.9 mph74%30.02 "Hg10 mi
10:56 PM44 °FPassing clouds.5 mph68%29.99 "Hg10 mi
9:56 PM43 °FLight rain. Mostly cloudy.No wind74%29.98 "Hg10 mi
8:56 PM43 °FOvercast.9 mph76%29.98 "Hg10 mi
7:56 PM44 °FPassing clouds.10 mph68%29.97 "Hg10 mi
6:56 PM44 °FMore clouds than sun.10 mph68%29.95 "Hg10 mi
5:56 PM44 °FMore clouds than sun.14 mph68%29.93 "Hg10 mi
Weather by CustomWeather, © 2016

See weather overviewHow to use our weather pages